www.pogodaiklimat.ru

Погода и климат >> Архив погоды >> Бразилия >> Ibotirama


ПОГОДА в Ibotirama

  • Прогноз погоды в Ibotirama
  • Монитор погоды в Ibotirama
  • Климат города

АРХИВ ПОГОДЫ в Ibotirama

Время (UTC), дата Ветер
(напр.,м/с)
 
Видим.   Явления Облачность Т
(С)
Тd
(С)
f
(%)
Тe
(С)
Тes
(С)
Комфортность P
(гПа)
Po
(гПа)
Тmin
(С)
Tmax
(С)
R
(мм)
R24
(мм)
S
(см)
13 9.10 В 2
{4}
н/о н/о +33.4 +10.5 25 +33 +33 жарко 1013.1 966.2
14 9.10 В 2
{5}
н/о н/о +34.8 +9.5 21 +33 +33 жарко 1012.4 965.7
15 9.10 СВ 1
{4}
н/о н/о +35.1 +8.6 20 +34 +34 очень
жарко
1010.9 964.4
16 9.10 ЮЗ 2
{4}
н/о н/о +36.8 +8.0 17 +35 +35 очень
жарко
1009.1 962.9
17 9.10 Ю 1
{4}
н/о н/о +38.6 +7.5 15 +36 +36 очень
жарко
1007.4 961.5
18 9.10 ЮЗ 2
{4}
н/о н/о +37.8 +6.2 14 +35 +35 очень
жарко
1006.8 960.8
19 9.10 Ю 1
{3}
н/о н/о +38.8 +5.5 13 +36 +36 очень
жарко
1006.0 960.2
20 9.10 В 2
{3}
н/о н/о +37.2 +4.0 13 +34 +34 очень
жарко
1005.8 959.8
21 9.10 В 1
{3}
н/о н/о +35.3 +3.9 14 +32 +32 жарко 1006.2 959.9
22 9.10 СВ 1
{3}
н/о н/о +33.6 +3.8 15 +31 +31 жарко 1006.6 960.0
23 9.10 штиль 0
{2}
н/о н/о +30.2 +4.8 20 +28 +28 жарко 1007.5 960.4
00 10.10 В 3
{4}
н/о н/о +32.8 +5.0 18 +31 +31 жарко 1008.2 961.4
01 10.10 З 1
{5}
н/о н/о +29.0 +9.2 29 +29 +29 жарко 1009.9 962.5
02 10.10 В 1
{3}
н/о н/о +30.0 +7.1 24 +29 +29 жарко 1010.0 962.7
03 10.10 В 2
{3}
н/о н/о +29.5 +6.9 24 +28 +28 жарко 1010.2 962.8
04 10.10 С 1
{3}
н/о н/о +27.5 +7.1 27 +27 +27 жарко 1010.2 962.5
05 10.10 штиль 0
{1}
н/о н/о +24.1 +9.5 40 +25 +25 комфорт 1010.4 962.2
06 10.10 штиль 0
{1}
н/о н/о +24.4 +7.2 33 +25 +25 комфорт 1010.1 962.0
07 10.10 штиль 0
{1}
н/о н/о +22.2 +9.6 45 +24 +24 комфорт 1010.3 961.8
08 10.10 В 1
{2}
н/о н/о +24.8 +8.9 36 +25 +25 комфорт 1010.2 962.1
09 10.10 СВ 1
{3}
н/о н/о +24.6 +11.0 42 +26 +26 жарко 1011.3 963.1
10 10.10 В 1
{3}
н/о н/о +27.5 +11.2 36 +28 +28 жарко 1011.9 964.2
11 10.10 В 2
{3}
н/о н/о +29.4 +11.6 33 +30 +30 жарко 1012.4 964.9
12 10.10 В 2
{4}
н/о н/о +31.6 +11.0 28 +32 +32 жарко 1012.2 965.1
13 10.10 ЮВ 1
{4}
н/о н/о +33.0 +9.8 24 +32 +32 жарко 1011.9 965.0
14 10.10 СВ 1
{3}
н/о н/о +35.1 +9.3 21 +34 +34 очень
жарко
1011.1 964.5
15 10.10 С 1
{3}
н/о н/о +36.0 +8.8 19 +34 +34 очень
жарко
1009.8 963.4
16 10.10 С 1
{7}
н/о н/о +36.8 +7.4 17 +35 +35 очень
жарко
1008.0 961.8
17 10.10 СЗ 1
{4}
н/о н/о +38.5 +6.4 14 +36 +36 очень
жарко
1006.4 960.6
18 10.10 ЮЗ 1
{3}
н/о н/о +38.6 +4.3 12 +36 +36 очень
жарко
1005.7 959.9
19 10.10 В 3
{4}
н/о н/о +38.5 +2.9 11 +35 +35 очень
жарко
1005.2 959.4
20 10.10 В 2
{4}
н/о н/о +37.2 +1.7 11 +34 +34 очень
жарко
1005.7 959.7
21 10.10 В 2
{4}
н/о н/о +35.0 +2.2 13 +32 +32 жарко 1006.4 960.0
22 10.10 В 2
{4}
н/о н/о +34.0 +2.1 13 +31 +31 жарко 1007.0 960.5
23 10.10 В 2
{3}
н/о н/о +33.2 +2.2 14 +30 +30 жарко 1007.8 961.1
00 11.10 В 3
{4}
н/о н/о +32.7 +1.6 14 +30 +30 жарко 1008.7 961.9
01 11.10 В 2
{4}
н/о н/о +31.1 +3.2 17 +29 +29 жарко 1009.8 962.7
02 11.10 В 1
{4}
н/о н/о +29.9 +4.2 20 +28 +28 жарко 1010.3 963.0
03 11.10 штиль 0
{3}
н/о н/о +28.5 +5.2 23 +27 +27 жарко 1010.4 962.9
04 11.10 штиль 0
{3}
н/о н/о +27.3 +5.9 26 +27 +27 жарко 1010.4 962.7
05 11.10 С 1
{2}
н/о н/о +26.3 +5.9 27 +26 +26 жарко 1010.1 962.3
06 11.10 СВ 1
{2}
н/о н/о +24.8 +6.4 31 +25 +25 комфорт 1010.2 962.1
07 11.10 З 1
{2}
н/о н/о +22.1 +10.0 46 +24 +24 комфорт 1011.1 962.5
08 11.10 В 1
{2}
н/о н/о +23.9 +9.7 41 +25 +25 комфорт 1011.5 963.2
09 11.10 ЮВ 1
{2}
н/о н/о +24.0 +12.3 48 +26 +26 жарко 1012.0 963.7
10 11.10 В 2
{3}
н/о н/о +26.8 +12.9 42 +28 +28 жарко 1012.5 964.6
11 11.10 В 2
{3}
н/о н/о +29.1 +11.5 34 +30 +30 жарко 1012.8 965.3
12 11.10 В 2
{4}
н/о н/о +31.5 +10.9 28 +31 +31 жарко 1012.6 965.4
13 11.10 В 1
{4}
н/о н/о +32.9 +9.0 23 +32 +32 жарко 1012.3 965.4
14 11.10 В 1
{3}
н/о н/о +34.8 +7.1 18 +33 +33 жарко 1011.4 964.8
15 11.10 ЮВ 1
{4}
н/о н/о +36.3 +6.8 16 +34 +34 очень
жарко
1009.9 963.6
16 11.10 ЮВ 1
{4}
н/о н/о +37.5 +3.6 12 +34 +34 очень
жарко
1008.1 962.0
17 11.10 В 3
{5}
н/о н/о +38.5 +1.3 10 +35 +35 очень
жарко
1006.8 960.9
18 11.10 В 1
{5}
н/о н/о +39.2 -1.9 8 +35 +35 очень
жарко
1005.9 960.2
19 11.10 В 2
{4}
н/о н/о +38.6 -0.9 8 +35 +35 очень
жарко
1005.6 959.8
20 11.10 В 2
{4}
н/о н/о +37.7 -1.5 8 +34 +34 очень
жарко
1005.6 959.7
21 11.10 В 2
{4}
н/о н/о +35.5 -1.7 9 +32 +32 жарко 1006.5 960.2
22 11.10 В 3
{4}
н/о н/о +34.6 -0.4 11 +31 +31 жарко 1007.5 961.0
23 11.10 В 3
{5}
н/о н/о +33.2 +1.8 14 +30 +30 жарко 1008.6 961.9
00 12.10 В 3
{5}
н/о н/о +32.2 +4.7 18 +30 +30 жарко 1009.3 962.4
01 12.10 В 2
{6}
н/о н/о +31.2 +5.6 20 +29 +29 жарко 1010.3 963.2
02 12.10 СВ 1
{4}
н/о н/о +30.4 +6.7 23 +29 +29 жарко 1010.5 963.3
03 12.10 В 1
{4}
н/о н/о +29.1 +7.8 26 +28 +28 жарко 1010.5 963.1
04 12.10 В 1
{3}
н/о н/о +28.4 +8.7 29 +28 +28 жарко 1010.4 962.9
05 12.10 В 1
{2}
н/о н/о +27.0 +8.9 32 +27 +27 жарко 1010.3 962.6
06 12.10 В 1
{2}
н/о н/о +25.6 +9.4 36 +26 +26 жарко 1010.5 962.5
07 12.10 ЮВ 1
{3}
н/о н/о +25.4 +10.5 39 +26 +26 жарко 1010.7 962.7
08 12.10 В 2
{4}
н/о н/о +25.0 +12.5 46 +27 +27 жарко 1011.7 963.6
09 12.10 штиль 0
{3}
н/о н/о +23.4 +13.4 53 +27 +27 душно 1012.7 964.3
10 12.10 В 3
{5}
н/о н/о +26.5 +13.8 46 +29 +29 жарко 1013.5 965.5
11 12.10 В 2
{5}
н/о н/о +28.5 +12.8 38 +30 +30 жарко 1014.4 966.7
12 12.10 В 3
{5}
н/о н/о +30.5 +11.7 31 +31 +31 жарко 1014.3 966.9
13 12.10 В 3
{5}
н/о н/о +31.7 +11.2 28 +32 +32 жарко 1013.9 966.7
14 12.10 В 2
{4}
н/о н/о +33.9 +9.7 23 +33 +33 жарко 1012.8 966.0
15 12.10 В 2
{4}
н/о н/о +35.7 +8.8 19 +34 +34 очень
жарко
1011.4 964.9
16 12.10 В 2
{5}
н/о н/о +37.0 +7.5 16 +35 +35 очень
жарко
1009.7 963.5
17 12.10 В 2
{4}
н/о н/о +38.1 +6.0 14 +35 +35 очень
жарко
1008.3 962.3
18 12.10 В 2
{5}
н/о н/о +37.8 +5.0 13 +35 +35 очень
жарко
1007.5 961.5
19 12.10 СВ 2
{5}
н/о н/о +37.5 +4.7 13 +35 +35 очень
жарко
1007.3 961.3
20 12.10 В 2
{5}
н/о н/о +36.8 +4.6 14 +34 +34 очень
жарко
1007.9 961.7
21 12.10 В 2
{4}
н/о н/о +34.7 +4.0 15 +32 +32 жарко 1008.7 962.2
22 12.10 В 2
{4}
н/о н/о +33.9 +4.2 16 +31 +31 жарко 1009.1 962.5
23 12.10 В 3
{5}
н/о н/о +32.8 +6.2 19 +31 +31 жарко 1010.0 963.2
00 13.10 В 2
{5}
н/о н/о +31.7 +7.2 22 +30 +30 жарко 1010.9 963.8
01 13.10 СВ 2
{5}
н/о н/о +30.6 +8.5 25 +30 +30 жарко 1011.9 964.6
02 13.10 В 2
{5}
н/о н/о +29.8 +9.2 28 +29 +29 жарко 1012.3 964.9
03 13.10 Ю 1
{4}
н/о н/о +27.5 +9.9 33 +28 +28 жарко 1012.4 964.6
04 13.10 ЮВ 1
{4}
н/о н/о +27.8 +10.2 33 +28 +28 жарко 1012.2 964.5
05 13.10 В 2
{3}
н/о н/о +27.0 +12.4 40 +28 +28 жарко 1012.0 964.2
06 13.10 В 1
{4}
н/о н/о +26.1 +13.3 45 +28 +28 жарко 1012.0 964.0
07 13.10 В 2
{4}
н/о н/о +26.1 +13.6 46 +28 +28 жарко 1012.1 964.1
08 13.10 штиль 0
{4}
н/о н/о +24.6 +14.0 52 +27 +27 жарко 1012.8 964.6
09 13.10 ЮВ 2
{2}
н/о н/о +24.9 +13.8 50 +27 +27 жарко 1013.2 965.0
10 13.10 В 1
{2}
н/о н/о +27.6 +13.6 42 +29 +29 жарко 1013.4 965.6
11 13.10 В 2
{3}
н/о н/о +29.6 +12.6 35 +31 +31 жарко 1013.9 966.4
12 13.10 СВ 1
{3}
н/о н/о +31.5 +11.4 29 +32 +32 жарко 1013.8 966.6
13 13.10 В 1
{3}
н/о н/о +33.7 +11.1 25 +33 +33 жарко 1013.2 966.3
14 13.10 СЗ 2
{3}
н/о н/о +34.3 +10.2 23 +33 +33 жарко 1012.3 965.6
15 13.10 З 2
{4}
н/о н/о +35.2 +9.2 20 +34 +34 очень
жарко
1011.1 964.6
16 13.10 З 2
{4}
н/о н/о +37.3 +9.6 19 +36 +36 очень
жарко
1009.2 963.1
17 13.10 Ю 2
{4}
н/о н/о +37.7 +9.0 18 +36 +36 очень
жарко
1008.0 962.0
18 13.10 Ю 2
{5}
н/о н/о +38.2 +8.1 16 +36 +36 очень
жарко
1007.1 961.2
19 13.10 Ю 2
{5}
н/о н/о +37.7 +7.9 16 +36 +36 очень
жарко
1006.7 960.7
20 13.10 ЮЗ 2
{4}
н/о н/о +37.3 +8.9 18 +36 +36 очень
жарко
1006.9 960.9
21 13.10 Ю 1
{4}
н/о н/о +35.3 +8.7 20 +34 +34 очень
жарко
1007.2 960.9
22 13.10 ЮЗ 1
{2}
н/о н/о +32.7 +9.5 24 +32 +32 жарко 1008.2 961.4
23 13.10 В 1
{1}
н/о н/о +31.7 +9.9 26 +31 +31 жарко 1009.0 962.0
00 14.10 ЮВ 1
{2}
н/о н/о +32.7 +9.7 24 +32 +32 жарко 1009.2 962.4
01 14.10 СВ 1
{3}
н/о н/о +30.9 +10.3 28 +31 +31 жарко 1009.9 962.8
02 14.10 В 1
{3}
н/о н/о +31.2 +10.0 27 +31 +31 жарко 1009.7 962.6
03 14.10 ЮЗ 1
{2}
н/о н/о +28.1 +11.5 36 +29 +29 жарко 1010.1 962.5
04 14.10 штиль 0
{1}
н/о н/о +28.0 +11.5 36 +29 +29 жарко 1010.1 962.5
05 14.10 штиль 0
{1}
н/о н/о +27.3 +12.2 39 +29 +29 жарко 1009.9 962.2
06 14.10 штиль 0
{1}
н/о н/о +24.5 +12.7 48 +26 +26 жарко 1010.4 962.3
07 14.10 штиль 0
{1}
н/о н/о +25.0 +11.9 44 +27 +27 жарко 1010.6 962.5
08 14.10 штиль 0
{1}
н/о н/о +24.3 +11.9 46 +26 +26 жарко 1011.2 963.0
09 14.10 С 1
{2}
н/о н/о +25.0 +12.3 45 +27 +27 жарко 1011.5 963.4
10 14.10 С 1
{2}
н/о н/о +26.9 +12.2 40 +28 +28 жарко 1011.9 964.1
11 14.10 СЗ 1
{1}
н/о н/о +30.4 +12.0 32 +31 +31 жарко 1011.8 964.5
12 14.10 СЗ 2
{3}
н/о н/о +32.9 +11.2 27 +33 +33 жарко 1011.2 964.3
13 14.10 С 2
{4}
н/о н/о +34.5 +11.3 24 +34 +34 очень
жарко
1010.7 964.1
14 14.10 З 2
{4}
н/о н/о +36.3 +11.8 23 +36 +36 очень
жарко
1009.8 963.5
15 14.10 З 2
{4}
н/о н/о +37.0 +10.4 20 +36 +36 очень
жарко
1008.7 962.5
16 14.10 З 1
{3}
н/о н/о +39.3 +10.0 17 +38 +38 очень
жарко
1006.7 961.0
17 14.10 ЮЗ 2
{4}
н/о н/о +39.4 +9.5 17 +38 +38 очень
жарко
1005.4 959.7
18 14.10 З 1
{3}
н/о н/о +39.3 +9.4 17 +38 +38 очень
жарко
1004.2 958.6
19 14.10 З 1
{3}
н/о н/о +39.5 +9.2 16 +38 +38 очень
жарко
1003.6 958.0
20 14.10 ЮЗ 2
{3}
н/о н/о +38.9 +8.9 16 +37 +37 очень
жарко
1003.5 957.8
21 14.10 З 1
{2}
н/о н/о +35.5 +10.4 22 +35 +35 очень
жарко
1004.3 958.1
22 14.10 штиль 0
{1}
н/о н/о +34.2 +10.0 23 +33 +33 жарко 1005.1 958.7
23 14.10 штиль 0
{1}
н/о н/о +31.5 +10.3 27 +31 +31 жарко 1006.3 959.4
00 15.10 штиль 0
{1}
н/о н/о +30.8 +9.9 27 +30 +30 жарко 1007.2 960.2
01 15.10 С 1
{2}
н/о н/о +32.9 +10.2 25 +32 +32 жарко 1007.7 961.0
02 15.10 СЗ 1
{1}
н/о н/о +30.8 +11.6 31 +31 +31 жарко 1008.1 961.0
03 15.10 СЗ 2
{4}
н/о н/о +31.5 +12.5 31 +32 +32 жарко 1007.7 960.8
04 15.10 С 1
{3}
н/о н/о +30.3 +14.9 39 +32 +32 жарко 1008.1 961.0
05 15.10 С 2
{3}
н/о н/о +29.5 +14.7 41 +32 +32 душно 1008.9 961.6
06 15.10 С 1
{3}
н/о н/о +28.6 +15.3 44 +31 +31 жарко 1008.9 961.5
07 15.10 С 1
{3}
н/о н/о +27.4 +16.0 50 +31 +31 душно 1009.5 961.9
08 15.10 С 1
{2}
н/о н/о +28.0 +16.6 50 +32 +32 душно 1010.1 962.5
09 15.10 СЗ 1
{2}
н/о н/о +27.7 +16.7 51 +31 +31 душно 1010.3 962.7
10 15.10 штиль 0
{2}
н/о н/о +28.7 +16.8 49 +32 +32 душно 1010.9 963.4
11 15.10 СВ 1
{2}
н/о н/о +30.7 +16.9 44 +34 +34 очень
душно
1010.3 963.1
12 15.10 СВ 1
{2}
н/о н/о +32.8 +16.4 37 +36 +36 очень
душно
1009.9 963.1
13 15.10 С 1
{3}
н/о н/о +36.1 +15.1 29 +38 +38 очень
душно
1008.8 962.5
14 15.10 З 1
{3}
н/о н/о +36.6 +14.3 26 +37 +37 очень
жарко
1008.0 961.8
15 15.10 С 2
{3}
н/о н/о +36.0 +14.3 27 +37 +37 душно 1007.2 961.0
16 15.10 З 1
{3}
н/о н/о +38.6 +13.9 23 +39 +39 душно 1005.5 959.7
17 15.10 СЗ 1
{3}
н/о н/о +36.8 +13.3 25 +37 +37 очень
жарко
1004.4 958.4
18 15.10 З 1
{2}
н/о н/о +37.6 +12.9 23 +38 +38 очень
жарко
1003.4 957.6
19 15.10 ЮЗ 1
{3}
н/о н/о +36.8 +13.2 24 +37 +37 очень
жарко
1003.5 957.5
20 15.10 Ю 1
{3}
н/о н/о +36.5 +13.4 25 +37 +37 очень
жарко
1003.1 957.1
21 15.10 ЮЗ 1
{3}
н/о н/о +34.0 +14.6 31 +35 +35 очень
жарко
1004.3 957.9
22 15.10 Ю 1
{2}
н/о н/о +33.1 +14.4 32 +34 +34 очень
жарко
1004.9 958.3
23 15.10 Ю 1
{2}
н/о н/о +31.9 +15.1 36 +34 +34 душно 1005.5 958.7
00 16.10 В 2
{3}
н/о н/о +33.0 +14.3 32 +34 +34 очень
жарко
1006.2 959.6
01 16.10 В 4
{6}
н/о н/о +32.7 +14.6 34 +34 +34 очень
жарко
1007.0 960.3
02 16.10 СВ 3
{6}
н/о н/о +31.3 +15.6 39 +34 +34 душно 1007.8 960.8
03 16.10 СВ 2
{6}
н/о н/о +30.7 +15.9 41 +34 +34 очень
душно
1008.2 961.1
04 16.10 СЗ 2
{6}
н/о н/о +28.0 +18.2 55 +33 +33 очень
душно
1008.7 961.2
05 16.10 С 2
{4}
н/о н/о +26.4 +19.1 64 +32 +32 очень
душно
1009.2 961.4
06 16.10 С 2
{4}
н/о н/о +25.1 +19.9 73 +31 +31 очень
душно
1009.6 961.6
07 16.10 С 1
{3}
н/о н/о +25.0 +20.0 74 +31 +31 очень
душно
1009.3 961.3
08 16.10 С 1
{3}
н/о н/о +24.3 +20.1 77 +30 +30 очень
душно
1010.0 961.8
09 16.10 С 1
{3}
н/о н/о +23.1 +20.5 85 +30 +30 очень
душно
1011.2 962.8 0.6
10 16.10 С 1
{3}
н/о н/о +23.9 +20.3 80 +30 +30 очень
душно
1011.8 963.5
11 16.10 С 1
{3}
н/о н/о +25.6 +20.2 72 +32 +32 очень
душно
1012.5 964.4

 

Местоположение метеостанции Ibotirama (Бразилия): широта -12.20 долгота -43.22 высота над уровнем моря 432 м.

В архиве по умолчанию представлена погода в Ibotirama за последнюю неделю. Архивные данные за месяц целиком и за предыдущие месяцы, начиная с января 2011 года, Вы можете получить, выбрав интересующий диапазон дат из раскрывающегося списка и нажав кнопку "Ввод!".


*Определитесь, кто Вы:
робот инопланетянин человек

Внимание! Время в таблицах - всемирное. Для получения местного времени необходимо прибавить поправку, которая в Ibotirama равна -3 ч.

Смотрите также архив погоды в соседних городах и на ближайших метеорологических станциях:

Погода в Bom Jesus da Lapa (Бразилия) (120 км)
Погода в Bom Jesus da Lapa (Бразилия) (121 км)
Погода в Barra (Бразилия) (125 км)
Погода в Barra (Бразилия) (125 км)
Погода в Buritirama (Бразилия) (171 км)
Погода в Irece (Бразилия) (176 км)
Погода в Piata (Бразилия) (190 км)
Погода в Barreiras (Бразилия) (194 км)
Погода в Barreiras (Бразилия) (194 км)
Погода в Santa Rita de Cassia (Бразилия) (194 км)

Пояснения к столбцам:

Ветер - указаны скорость ветра в м/с - средняя за 10 мин, порывы в срок и между сроками (в фигурных скобках) и направление, откуда дует ветер: С - северный, СВ - северо-восточный, В - восточный, ЮВ - юго-восточный, Ю - южный, ЮЗ - юго-западный, З - западный, СЗ - северо-западный.
Видимость - горизонтальная дальность видимости в метрах или километрах. При видимости от 1 до 10 км при отсутствии осадков обычно наблюдается дымка, при ухудшении видимости до 1 км и менее - туман. В сухую погоду видимость может ухудшаться дымом, пылью или мглою.
Явления - указаны атмосферные явления, наблюдавшиеся в срок или в последний час перед сроком; фигурными скобками обозначены явления, наблюдавшиеся между сроками (за 1-3 часа до срока); квадратными скобками обозначены град или гололедные отложения с указанием их диаметра в мм.
Облачность - указаны через наклонную черту общая и нижняя облачность в баллах и высота нижней границы облаков в метрах; квадратными скобками обозначены формы облаков: Ci - перистые, Cs - перисто-слоистые, Cc - перисто-кучевые, Ac - высококучевые, As - высокослоистые, Sc - слоисто-кучевые, Ns - слоисто-дождевые, Cu - кучевые, Cb - кучево-дождевые. Подробнее классификацию облаков см. в Атласе облаков (PDF).
T - Температура воздуха - температура, измеренная на высоте 2 м над землей.
Td - Температура точки росы - температура, при понижении до которой содержащийся в воздухе водяной пар достигнет насыщения.
f - Относительная влажность воздуха - влажноcть воздуха, измеренная на высоте 2 м над землей.
Te - Эффективная температура - температура, которую ощущает одетый по сезону человек в тени. Характеристика душности погоды. При расчете учитывается влияние влажности воздуха и скорости ветра на теплоощущения человека.
Tes - Эффективная температура на солнце - температура, которую ощущает человек, с поправкой на солнечный нагрев. Характеристика знойности погоды. Зависит от высоты солнца над горизонтом, облачности и скорости ветра. Ночью, в пасмурную погоду, а также при ветре 12 м/с и более поправка равна нулю.
P - Атмосферное давление - приведенное к уровню моря атмосферное давление.
Po - Атмосферное давление - измеренное на уровне метеостанции атмосферное давление.
Tmin - Минимальная температура - минимум температуры воздуха на высоте 2 м над землей.
Tmax - Максимальная температура - максимум температуры воздуха на высоте 2 м над землей.
R - Количество осадков - Количество выпавших осадков за период времени, мм. При наведении курсора мыши на число - период времени, за который выпало указанное количество осадков.
R24 - Количество осадков - Количество выпавших осадков за 24 часа, мм.
S - Снежный покров - Высота снежного покрова, см. При наведении курсора мыши на число - состояние снежного покрова и степень покрытия местности в баллах.